Radiation Dose measured at exhaust stack monitor of Miscellaneous Solid Waste Incinerator Building/Incinerator raregas monitor
Date,Time,Incinerator Gas Monitor(cps),Wind Direction,Wind Velocity(m/s)
2022/06/06,00:00,1.5,north-northeast,4.8
2022/06/06,00:10,1.5,north-northeast,5.5
2022/06/06,00:20,1.5,north-northeast,5.2
2022/06/06,00:30,1.5,north-northeast,4.8
2022/06/06,00:40,1.4,north,4.9
2022/06/06,00:50,1.4,north-northeast,5.1
2022/06/06,01:00,1.5,north-northeast,4.8
2022/06/06,01:10,1.5,north-northeast,5.4
2022/06/06,01:20,1.4,north-northeast,5.2
2022/06/06,01:30,1.4,north-northeast,5.6
2022/06/06,01:40,1.5,north-northeast,6.4
2022/06/06,01:50,1.4,north-northeast,5.4
2022/06/06,02:00,1.4,north-northeast,5.9
2022/06/06,02:10,1.4,north-northeast,6.1
2022/06/06,02:20,1.5,north-northeast,7.2
2022/06/06,02:30,1.5,northeast,7.2
2022/06/06,02:40,1.4,northeast,6.5
2022/06/06,02:50,1.4,north-northeast,5.7
2022/06/06,03:00,1.5,north-northeast,7.5
2022/06/06,03:10,1.4,northeast,7.3
2022/06/06,03:20,1.5,northeast,8.0
2022/06/06,03:30,1.4,northeast,9.3
2022/06/06,03:40,1.4,northeast,8.7
2022/06/06,03:50,1.5,northeast,9.1
2022/06/06,04:00,1.4,northeast,9.1
2022/06/06,04:10,1.4,northeast,9.2
2022/06/06,04:20,1.4,east-northeast,9.3
2022/06/06,04:30,1.4,east-northeast,8.4
2022/06/06,04:40,1.4,northeast,8.8
2022/06/06,04:50,1.5,northeast,8.0
2022/06/06,05:00,1.5,northeast,8.7
2022/06/06,05:10,1.6,northeast,9.0
2022/06/06,05:20,1.4,north-northeast,8.2
2022/06/06,05:30,1.5,northeast,8.5
2022/06/06,05:40,1.5,north-northeast,9.1
2022/06/06,05:50,1.5,north-northeast,8.9
2022/06/06,06:00,1.5,north-northeast,8.6
2022/06/06,06:10,1.6,north-northeast,8.7
2022/06/06,06:20,1.5,north-northeast,9.4
2022/06/06,06:30,1.5,north-northeast,7.2
2022/06/06,06:40,1.4,north-northeast,6.7
2022/06/06,06:50,1.5,north-northeast,5.8
2022/06/06,07:00,1.4,north-northeast,6.8
2022/06/06,07:10,1.4,north-northeast,7.6
2022/06/06,07:20,1.4,north-northeast,7.9
2022/06/06,07:30,1.5,north-northeast,7.9
2022/06/06,07:40,1.5,north-northeast,8.1
2022/06/06,07:50,1.4,north-northeast,7.9
2022/06/06,08:00,1.4,north-northeast,7.6
2022/06/06,08:10,1.5,north-northeast,8.4
2022/06/06,08:20,1.5,north-northeast,8.4
2022/06/06,08:30,1.4,north-northeast,8.7
2022/06/06,08:40,1.5,-,CALM
2022/06/06,08:50,1.5,northeast,6.6
2022/06/06,09:00,1.5,north-northeast,10.0
2022/06/06,09:10,1.5,northeast,7.8
2022/06/06,09:20,1.5,northeast,7.4
2022/06/06,09:30,1.4,northeast,9.0
2022/06/06,09:40,1.5,northeast,8.4
2022/06/06,09:50,1.4,north-northeast,9.0
2022/06/06,10:00,1.5,northeast,8.7
2022/06/06,10:10,1.5,northeast,6.9
2022/06/06,10:20,1.4,north-northeast,8.6
2022/06/06,10:30,1.5,north-northeast,8.4
2022/06/06,10:40,1.5,north-northeast,10.0
2022/06/06,10:50,1.4,north-northeast,8.9
2022/06/06,11:00,1.6,northeast,11.0
2022/06/06,11:10,1.4,northeast,8.7
2022/06/06,11:20,1.5,northeast,9.9
2022/06/06,11:30,1.5,northeast,9.3
2022/06/06,11:40,1.4,north-northeast,8.6
2022/06/06,11:50,1.4,north-northeast,9.3
2022/06/06,12:00,1.5,northeast,9.6
2022/06/06,12:10,1.4,-,CALM
2022/06/06,12:20,1.5,north-northeast,6.3
2022/06/06,12:30,1.5,north-northeast,8.4
2022/06/06,12:40,1.4,north-northeast,8.8
2022/06/06,12:50,1.5,north-northeast,8.7
2022/06/06,13:00,1.5,north-northeast,9.5
2022/06/06,13:10,1.5,north-northeast,8.6
2022/06/06,13:20,1.5,east-northeast,5.7
2022/06/06,13:30,1.6,-,CALM
2022/06/06,13:40,1.5,north-northeast,4.5
2022/06/06,13:50,1.6,north,6.6
2022/06/06,14:00,1.4,north,7.3
2022/06/06,14:10,1.5,north,6.0
2022/06/06,14:20,1.5,north-northeast,8.1
2022/06/06,14:30,1.6,north-northeast,6.0
2022/06/06,14:40,1.5,north,9.4
2022/06/06,14:50,1.4,north,8.4
2022/06/06,15:00,1.5,north,9.1
2022/06/06,15:10,1.5,north-northwest,8.1
2022/06/06,15:20,1.4,north,8.2
2022/06/06,15:30,1.4,north,7.0
2022/06/06,15:40,1.4,north,6.9
2022/06/06,15:50,1.5,north,6.8
2022/06/06,16:00,1.5,north,7.1
2022/06/06,16:10,1.5,north-northwest,6.1
2022/06/06,16:20,1.5,north-northwest,6.7
2022/06/06,16:30,1.4,north-northwest,7.1
2022/06/06,16:40,1.5,north-northwest,7.9
2022/06/06,16:50,1.4,northwest,5.7
2022/06/06,17:00,1.4,northwest,5.9
2022/06/06,17:10,1.5,northwest,6.2
2022/06/06,17:20,1.5,northwest,6.8
2022/06/06,17:30,1.4,northwest,6.3
2022/06/06,17:40,1.5,northwest,7.7
2022/06/06,17:50,1.5,north-northwest,6.4
2022/06/06,18:00,1.5,northwest,6.1
2022/06/06,18:10,1.4,northwest,5.5
2022/06/06,18:20,1.5,northwest,6.0
2022/06/06,18:30,1.4,northwest,7.1
2022/06/06,18:40,1.4,northwest,7.4
2022/06/06,18:50,1.4,northwest,6.2
2022/06/06,19:00,1.5,northwest,7.4
2022/06/06,19:10,1.5,northwest,5.9
2022/06/06,19:20,1.3,northwest,5.2
2022/06/06,19:30,1.5,northwest,6.2
2022/06/06,19:40,1.5,north-northwest,6.1
2022/06/06,19:50,1.5,north-northwest,7.3
2022/06/06,20:00,1.5,north-northwest,7.1
2022/06/06,20:10,1.5,north-northwest,6.4
2022/06/06,20:20,1.5,north-northwest,5.8
2022/06/06,20:30,1.4,northwest,4.1
2022/06/06,20:40,1.5,north-northwest,5.4
2022/06/06,20:50,1.4,north-northwest,4.4
2022/06/06,21:00,1.5,north-northwest,4.9
2022/06/06,21:10,1.5,northwest,4.4
2022/06/06,21:20,1.5,northwest,5.3
2022/06/06,21:30,1.5,north-northwest,6.0
2022/06/06,21:40,1.4,north-northwest,6.1
2022/06/06,21:50,1.5,north-northwest,6.6
2022/06/06,22:00,1.5,north-northwest,7.4
2022/06/06,22:10,1.5,north-northwest,7.1
2022/06/06,22:20,1.4,north,6.9
2022/06/06,22:30,1.5,north,6.4
2022/06/06,22:40,1.5,north,5.9
2022/06/06,22:50,1.5,north,4.2
2022/06/06,23:00,1.5,north-northwest,4.9
2022/06/06,23:10,1.4,north-northwest,4.4
2022/06/06,23:20,1.5,north,5.7
2022/06/06,23:30,1.5,northeast,6.2
2022/06/06,23:40,1.4,northeast,8.8
2022/06/06,23:50,1.5,northeast,9.1
